When you browse on this site, cookies collect data to enhance your experience and personalize the content and advertising you see.
Visit our Privacy Policy to learn more. By continuing to use the site, you agree to this use of cookies and data.
  • în România
  • Lista ţărilor
  • Pe 7 zile
  • Temperatura apei
  • Meteo pe hartă
  • Widget-uri
  • user-avatar
    Intrare

    Meteo pe oră la Nara

    Astăzi, 23 Ianuarie, Joi

    Timp Temperatura Precipitaţii Vânt Presiune Umiditate
    00:00 +7°C° 0.2 mm 2 m/s 737 mmHg 82%
    01:00 +7°C° 0.2 mm 2 m/s 736 mmHg 83%
    02:00 +8°C° 0.2 mm 2 m/s 735 mmHg 84%
    03:00 +8°C° 0 mm 3 m/s 735 mmHg 83%
    04:00 +7°C° 1.2 mm 3 m/s 734 mmHg 86%
    05:00 +7°C° 1.2 mm 3 m/s 734 mmHg 88%
    06:00 +7°C° 1.2 mm 3 m/s 733 mmHg 90%
    07:00 +8°C° 3.4 mm 3 m/s 733 mmHg 91%
    08:00 +8°C° 3.4 mm 3 m/s 733 mmHg 93%
    09:00 +8°C° 3.4 mm 3 m/s 733 mmHg 94%
    10:00 +9°C° 1 mm 3 m/s 733 mmHg 93%
    11:00 +9°C° 1 mm 2 m/s 732 mmHg 93%
    12:00 +9°C° 1 mm 2 m/s 732 mmHg 92%
    13:00 +10°C° 0.4 mm 2 m/s 732 mmHg 92%
    14:00 +10°C° 0.4 mm 2 m/s 731 mmHg 92%
    15:00 +11°C° 0.4 mm 1 m/s 731 mmHg 92%
    16:00 +11°C° 0.1 mm 1 m/s 732 mmHg 93%
    17:00 +11°C° 0.1 mm 1 m/s 732 mmHg 93%
    18:00 +9°C° 0.1 mm 0 m/s 732 mmHg 93%
    19:00 +10°C° 0 mm 1 m/s 733 mmHg 93%
    20:00 +10°C° 0 mm 1 m/s 733 mmHg 93%
    21:00 +10°C° 0 mm 1 m/s 733 mmHg 93%
    22:00 +9°C° 0 mm 1 m/s 733 mmHg 94%
    23:00 +9°C° 0 mm 1 m/s 733 mmHg 94%

    Mâine, 24 Ianuarie, Vineri

    Timp Temperatura Precipitaţii Vânt Presiune Umiditate
    00:00 +9°C° 0 mm 1 m/s 733 mmHg 95%
    01:00 +9°C° 0 mm 1 m/s 734 mmHg 94%
    02:00 +9°C° 0 mm 1 m/s 734 mmHg 94%
    03:00 +9°C° 0 mm 1 m/s 734 mmHg 94%
    04:00 +8°C° 0 mm 1 m/s 734 mmHg 94%
    05:00 +8°C° 0 mm 1 m/s 735 mmHg 94%
    06:00 +8°C° 0 mm 1 m/s 735 mmHg 93%
    07:00 +9°C° 0 mm 1 m/s 735 mmHg 91%
    08:00 +9°C° 0 mm 1 m/s 736 mmHg 88%
    09:00 +10°C° 0 mm 1 m/s 736 mmHg 85%
    10:00 +10°C° 0.1 mm 1 m/s 736 mmHg 81%
    11:00 +10°C° 0.1 mm 2 m/s 736 mmHg 77%
    12:00 +12°C° 0.1 mm 2 m/s 736 mmHg 74%
    13:00 +12°C° 0 mm 2 m/s 736 mmHg 71%
    14:00 +11°C° 0 mm 3 m/s 736 mmHg 67%
    15:00 +11°C° 0 mm 4 m/s 736 mmHg 64%
    16:00 +10°C° 0 mm 4 m/s 736 mmHg 66%
    17:00 +8°C° 0 mm 4 m/s 737 mmHg 68%
    18:00 +7°C° 0 mm 4 m/s 737 mmHg 70%
    19:00 +6°C° 0 mm 4 m/s 737 mmHg 70%
    20:00 +6°C° 0 mm 4 m/s 738 mmHg 71%
    21:00 +6°C° 0 mm 5 m/s 738 mmHg 71%
    22:00 +5°C° 0 mm 4 m/s 738 mmHg 71%
    23:00 +4°C° 0 mm 4 m/s 739 mmHg 72%

    Poimâine, 25 Ianuarie, Sâmbătă

    Timp Temperatura Precipitaţii Vânt Presiune Umiditate
    00:00 +4°C° 0 mm 4 m/s 739 mmHg 72%
    01:00 +3°C° 0 mm 4 m/s 739 mmHg 72%
    02:00 +3°C° 0 mm 4 m/s 739 mmHg 72%
    03:00 +3°C° 0 mm 4 m/s 738 mmHg 72%
    04:00 +2°C° 0 mm 3 m/s 739 mmHg 73%
    05:00 +2°C° 0 mm 3 m/s 739 mmHg 73%
    06:00 +1°C° 0 mm 3 m/s 739 mmHg 73%
    07:00 +2°C° 0 mm 3 m/s 739 mmHg 69%
    08:00 +3°C° 0 mm 3 m/s 740 mmHg 65%
    09:00 +3°C° 0 mm 3 m/s 740 mmHg 61%
    10:00 +5°C° 0 mm 3 m/s 740 mmHg 54%
    11:00 +7°C° 0 mm 3 m/s 739 mmHg 47%
    12:00 +8°C° 0 mm 3 m/s 739 mmHg 40%
    13:00 +9°C° 0 mm 2 m/s 739 mmHg 39%
    14:00 +9°C° 0 mm 2 m/s 739 mmHg 37%
    15:00 +9°C° 0 mm 2 m/s 738 mmHg 36%
    16:00 +8°C° 0 mm 2 m/s 738 mmHg 40%
    17:00 +7°C° 0 mm 2 m/s 738 mmHg 44%
    18:00 +6°C° 0 mm 2 m/s 738 mmHg 48%
    19:00 +6°C° 0 mm 2 m/s 738 mmHg 50%
    20:00 +6°C° 0 mm 2 m/s 739 mmHg 51%
    21:00 +6°C° 0 mm 2 m/s 739 mmHg 53%
    22:00 +6°C° 0 mm 2 m/s 738 mmHg 54%
    23:00 +6°C° 0 mm 2 m/s 738 mmHg 56%

    26 Ianuarie, Duminică

    Timp Temperatura Precipitaţii Vânt Presiune Umiditate
    00:00 +6°C° 0 mm 2 m/s 738 mmHg 57%
    01:00 +6°C° 0.1 mm 2 m/s 737 mmHg 59%
    02:00 +7°C° 0.1 mm 1 m/s 737 mmHg 60%
    03:00 +7°C° 0.1 mm 1 m/s 737 mmHg 62%
    04:00 +6°C° 0.3 mm 1 m/s 736 mmHg 67%
    05:00 +6°C° 0.3 mm 1 m/s 736 mmHg 72%
    06:00 +5°C° 0.3 mm 1 m/s 736 mmHg 78%
    07:00 +4°C° 0.4 mm 2 m/s 736 mmHg 80%
    08:00 +4°C° 0.4 mm 2 m/s 736 mmHg 82%
    09:00 +4°C° 0.4 mm 3 m/s 736 mmHg 85%
    10:00 +4°C° 0.7 mm 3 m/s 736 mmHg 86%
    11:00 +5°C° 0.7 mm 2 m/s 736 mmHg 88%
    12:00 +5°C° 0.7 mm 2 m/s 735 mmHg 89%
    13:00 +5°C° 1.1 mm 2 m/s 735 mmHg 90%
    14:00 +5°C° 1.1 mm 2 m/s 735 mmHg 90%
    15:00 +4°C° 1.1 mm 3 m/s 734 mmHg 91%
    16:00 +4°C° 0.8 mm 3 m/s 734 mmHg 91%
    17:00 +4°C° 0.8 mm 3 m/s 734 mmHg 91%
    18:00 +4°C° 0.8 mm 3 m/s 734 mmHg 91%
    19:00 +4°C° 1 mm 3 m/s 734 mmHg 91%
    20:00 +4°C° 1 mm 3 m/s 735 mmHg 91%
    21:00 +4°C° 1 mm 3 m/s 735 mmHg 91%
    22:00 +4°C° 0.8 mm 3 m/s 734 mmHg 91%
    23:00 +4°C° 0.8 mm 3 m/s 734 mmHg 91%

    27 Ianuarie, Luni

    Timp Temperatura Precipitaţii Vânt Presiune Umiditate
    00:00 +4°C° 0.8 mm 3 m/s 734 mmHg 91%
    01:00 +4°C° 1.2 mm 3 m/s 734 mmHg 91%
    02:00 +4°C° 1.2 mm 3 m/s 733 mmHg 92%
    03:00 +4°C° 1.2 mm 3 m/s 733 mmHg 92%
    04:00 +4°C° 1.2 mm 3 m/s 733 mmHg 92%
    05:00 +4°C° 1.2 mm 3 m/s 733 mmHg 93%
    06:00 +4°C° 1.2 mm 3 m/s 732 mmHg 93%
    07:00 +5°C° 0.5 mm 3 m/s 732 mmHg 92%
    08:00 +5°C° 0.5 mm 4 m/s 732 mmHg 91%
    09:00 +6°C° 0.5 mm 4 m/s 732 mmHg 90%
    10:00 +6°C° 1.1 mm 4 m/s 731 mmHg 89%
    11:00 +6°C° 1.1 mm 4 m/s 731 mmHg 89%
    12:00 +6°C° 1.1 mm 4 m/s 730 mmHg 88%
    13:00 +6°C° 1 mm 5 m/s 730 mmHg 87%
    14:00 +6°C° 1 mm 5 m/s 729 mmHg 87%
    15:00 +6°C° 1 mm 5 m/s 729 mmHg 86%
    16:00 +5°C° 1 mm 6 m/s 728 mmHg 86%
    17:00 +5°C° 1 mm 6 m/s 728 mmHg 86%
    18:00 +5°C° 1 mm 6 m/s 728 mmHg 86%
    19:00 +4°C° 1.6 mm 6 m/s 727 mmHg 86%
    20:00 +4°C° 1.6 mm 6 m/s 727 mmHg 85%
    21:00 +5°C° 1.6 mm 5 m/s 726 mmHg 85%
    22:00 +5°C° 0.4 mm 5 m/s 726 mmHg 85%
    23:00 +5°C° 0.4 mm 5 m/s 726 mmHg 85%

    28 Ianuarie, Marţi

    Timp Temperatura Precipitaţii Vânt Presiune Umiditate
    00:00 +5°C° 0.4 mm 5 m/s 725 mmHg 85%
    01:00 +5°C° 1 mm 5 m/s 725 mmHg 86%
    02:00 +5°C° 1 mm 5 m/s 725 mmHg 88%
    03:00 +5°C° 1 mm 5 m/s 725 mmHg 90%
    04:00 +5°C° 1 mm 5 m/s 725 mmHg 90%
    05:00 +5°C° 1 mm 4 m/s 725 mmHg 91%
    06:00 +5°C° 1 mm 4 m/s 725 mmHg 92%
    07:00 +5°C° 1.8 mm 4 m/s 726 mmHg 92%
    08:00 +5°C° 1.8 mm 4 m/s 726 mmHg 93%
    09:00 +5°C° 1.8 mm 3 m/s 726 mmHg 94%
    10:00 +7°C° 0.8 mm 3 m/s 726 mmHg 91%
    11:00 +7°C° 0.8 mm 2 m/s 727 mmHg 89%
    12:00 +9°C° 0.8 mm 1 m/s 727 mmHg 87%
    13:00 +9°C° 0.2 mm 1 m/s 727 mmHg 87%
    14:00 +9°C° 0.2 mm 1 m/s 727 mmHg 88%
    15:00 +9°C° 0.2 mm 1 m/s 727 mmHg 88%
    16:00 +8°C° 0.1 mm 1 m/s 727 mmHg 89%
    17:00 +8°C° 0.1 mm 1 m/s 727 mmHg 91%
    18:00 +7°C° 0.1 mm 0 m/s 727 mmHg 92%
    19:00 +7°C° 0.1 mm 0 m/s 728 mmHg 92%
    20:00 +7°C° 0.1 mm 0 m/s 728 mmHg 92%
    21:00 +7°C° 0.1 mm 0 m/s 728 mmHg 92%
    22:00 +7°C° 0.1 mm 0 m/s 728 mmHg 92%
    23:00 +8°C° 0.1 mm 1 m/s 728 mmHg 91%
    Arată mai mult